Location: Long Island Community Building
(39.9491°N, 99.5338°W)
Time: 11:33:28
(UTC+00:00)

BREEZE-M DEB (TANK) - Pass Details

Date: 06 December 2019
Orbit: 300 x 15768 km, 49.4° (Epoch: 27 January)

Event Time Altitude Azimuth Distance (km) Brightness Sun altitude
Rises 23:19:51 0° 220° (SW) 2,532 7.3 -2.0°
Reaches altitude 10° 23:21:12 10° 216° (SW) 1,933 6.4 -2.2°
Maximum altitude 23:25:04 64° 134° (SE) 1,170 3.9 -2.9°
Drops below altitude 10° 23:39:40 10° 57° (ENE) 6,834 7.2 -5.4°
Enters shadow 23:43:45 - 57° (ENE) 8,307 7.6 -6.1°
